DECAYED

OBJECT K, 61236 (Decayed)

Orbit data source: Space-Track

You're viewing an Uncataloged Satellite

Recently launched and/or uncataloged satellites may have evolving metadata. Metadata may include but not limited to: Owner, Maufacturer, Bus, Motor, and Mission.

OBJECT K, 61236 was a satellite owned by Changzheng H. (CN) in LEO that was launched on Tue, 24 Sep 2024 UTC launched from the Yellow Sea Launch Area, China (YSLA). Unknown objects in Earth's orbit typically refer to objects detected orbiting the Earth but have not yet been identified or cataloged. These objects could be anything from previously untracked satellites, spent rocket stages, debris from satellite collisions, or even natural meteoroids temporarily captured by Earth's gravity. This object's orbit decayed before it could be identified.

Not visible in the next 10 days
Identifier
61236, 2024-173K
Orbit
Decayed
Country
Flag of CNCN / PRC
Related business
Manufacturer
Changzheng H.
Mission
Decayed spacecraft
Bus & Motor
Unknown
Mass
Unknown
Launch date (UTC)
2024-09-24 (1 year ago)
Launch vehicle
Unknown
Launch site
Yellow Sea Launch Area, China (YSLA)
Object type
Unknown
Shape & HBR
Unknown shape, 0.5 m
Radar Cross Section
Medium (>0.1 m² and <1 m²)

Expand to show TLE details & history
Last TLE update: 2 months ago

TLE from 2 months ago
0 OBJECT K
1 61236U 24173K   25248.36256531  .10875761  25328-5  76751-3 0  9996
2 61236  97.3746 338.0203 0013575 268.4411  91.5333 16.39957900 53698
Epoch: 2025-09-05T08:42Z
TLE epoch observation values (Epoch: 2025-09-05T08:42:05.642Z)
Latitude
-0.00009°
Longitude
-137.21503°
Altitude
169.416 km
Speed
7.804 km/s
True Right ascension
22h 32m 04s
True Declination
0° 00' 00"
Sunlit
Object was in full shadow at epoch
Visualization orbit readout
Latitude
Unknown
Longitude
Unknown
Altitude
Unknown
Speed
Unknown
Apparent Right ascension
Unknown
Apparent Declination
Unknown
Sunlit
N/A
Visualization observer readout
Local Sidereal Time
19:50:37
Azimuth
Unknown
Elevation
Unknown
Doppler factor
Unknown
Orbital elements
Apogee altitude
171.6 km
Perigee altitude
153.842 km
Semi-major axis
6,540.858 km
Eccentricity
0.00136
Inclination
97.3746°
RAAN
338.0203°
Arg. of periapsis
268.4411°
True anomaly
91.6888°
Mean anomaly
91.5333°
Eccentric anomaly
91.61105°
Mean motion
4.1029 °/min
Orbital period
87.74 mins
BSTAR
0.00076751
Loading maneuver chart data...
Computing Atmospheric mass density...
Loading historical data...
Loading historical data...
Loading historical data...
Loading historical data...
Loading historical data...
Loading historical data...
Loading historical data...

Documentation

Showing up to 5 results
|